User: anonymous   Login
Location: Unspecified
(0.0000°N, 0.0000°E)
Time: 04:05:27
(UTC+02:00)
Language:

Cosmos 1703 Rocket - Orbit

View from above orbital plane
View from above orbital plane
View from above satellite
View from above satellite

Ground track
Ground track

The orbit data is extracted from the following two-line orbital elements,

1 16263U 85108B   15117.11187177  .00000492  00000-0  57767-4 0  9999
2 16263 082.5016 127.8939 0021340 046.8349 015.3564 14.82733652588483
Epoch (UTC): 27 April 2015 02:41:05
Eccentricity: 0.0021340
inclination: 82.5016°
perigee height: 606 km
apogee height: 635 km
right ascension of ascending node: 127.8939°
argument of perigee: 46.8349°
revolutions per day: 14.82733652
mean anomaly at epoch: 15.3564°
orbit number at epoch: 58848

The dashed part of the orbit path shows where the satellite is in the earth's shadow,  

DLR